sat.trackr.live / text

‹ back to catalog

YAOGAN-39 02B

NORAD 57889 · 2023-145D

PAYLOAD ACTIVE UNKNOWN

§ Identity

Operator
Country
PRC
Launch date
2023-09-17
Launch site
XICLF
Launch vehicle
Mass (kg)
RCS (m²)

External: N2YO · Heavens-Above · Gunter

§ Orbital elements

Epoch: 2026-05-25T01:31:09.165792Z

Period
94.89 min
Inclination
34.9918°
Eccentricity
0.0003879
Mean motion
15.17573239 rev/d
Perigee alt
510.5 km
Apogee alt
515.9 km
Semi-major
6,891.3 km
B*
2.9728e-4
RAAN
8.4649°
Arg perigee
221.0890°
Mean anomaly
138.9531°
Rev number
14,937

§ Raw data

YAOGAN-39 02B1 57889U 23145D   26145.06330053  .00006082  00000+0  29728-3 0  99962 57889  34.9918   8.4649 0003879 221.0890 138.9531 15.17573239149370

JSON: /api/v1/satellites/57889 · /tle

For live sub-satellite position, see the globe view (requires WebGL).

§ Visibility from observer

Set your observer location to see the next 7 days of passes ≥ 10°. The values pass through the URL so the page stays shareable.

No JS? Fill the form by hand. The geolocation button needs JavaScript.